[[{"header":{"parameterUnit":"m.s-1","parameterCategory":1,"la1":30.2991,"la2":30.254,"lo1":-89.0895,"lo2":-89.0444,"dy":0.0017,"dx":0.0017,"nx":28,"ny":28,"refTime":"2024-04-19T21:00:00:Z","depth":0,"parameterNumber":2,"parameterNumberName":"U-component_of_WINDS"},"data":[0,0,0,0,0,0,0,0,0,0,0,0,0,0,0,0,0,0,0,0,0,0,0,0,0,0,0,0,0,0,0,0,0,0,0,0,0,0,0,0,0,0,0,0,0,0,0,0,0,0,0,0,0,0,0,0,0,0,0.5999,0.6,0,0.6076,0.6077,0.6078,0.6091,0.609,0.6089,0.6089,0.6168,0.6171,0.6173,0,0,0,0,0,0,0,0,0,0,0,0,0,0.5863,0.5866,0.5999,0.6,0.6001,0.6076,0.6077,0.6078,0.6091,0.609,0.6089,0.6088,0.6167,0.617,0.6174,0,0,0,0,0,0,0,0,0,0,0,0,0,0.5929,0.5866,0.5999,0.6017,0.6019,0.6076,0.6077,0.6078,0.6091,0.609,0.6089,0.6088,0.6166,0.617,0.6174,0.6219,0,0,0.6187,0.6188,0,0,0,0,0,0,0,0,0.5926,0.5934,0.6013,0.6015,0.6018,0.6073,0.6058,0.6126,0.6091,0.6064,0.6089,0.6087,0.6137,0.6144,0.616,0.6223,0.6226,0.6187,0.6189,0.6191,0.6192,0,0,0,0,0,0,0,0.5921,0.5931,0.603,0.6014,0.6017,0.602,0.6029,0.6071,0.6105,0.6066,0.6067,0.6076,0.6138,0.6156,0.6162,0.6228,0.6187,0.619,0.6193,0.6195,0.6331,0.6332,0,0,0,0,0,0,0.5913,0.5927,0.6027,0.6032,0.5968,0.6024,0.6033,0.6056,0.6105,0.6111,0.6077,0.6076,0.615,0.6157,0.6165,0.6221,0.6191,0.6195,0.6197,0.633,0.6331,0.6332,0,0,0,0,0,0,0.591,0.5922,0.6024,0.598,0.5993,0.6027,0.6053,0.6058,0.6076,0.6113,0.6119,0.6089,0.6149,0.6159,0.6206,0.6224,0.6197,0.6201,0.6328,0.633,0.6332,0.6334,0,0,0,0,0,0,0.5906,0.5921,0.5939,0.598,0.5996,0.6064,0.6054,0.6061,0.6083,0.6083,0.6126,0.6132,0.6149,0.6199,0.621,0.6229,0.6204,0.6327,0.6329,0.6331,0.6332,0.6335,0.6338,0,0,0,0,0,0.5901,0.5936,0.594,0.5952,0.6018,0.6065,0.6073,0.6093,0.6085,0.6103,0.6126,0.613,0.622,0.6204,0.6216,0.6237,0.6326,0.6329,0.6331,0.6331,0.6335,0.6338,0,0,0,0,0,0,0.5896,0.5942,0.5946,0.5996,0.6026,0.6067,0.609,0.6096,0.613,0.6128,0.6151,0.616,0.6206,0.6226,0.6207,0.6283,0.6272,0.6277,0.6268,0.6272,0.6275,0.6269,0.6207,0,0,0,0,0,0.5901,0.5935,0.5973,0.6013,0.6028,0.6056,0.6077,0.6089,0.6122,0.6135,0.6162,0.6193,0.6228,0.6251,0.6286,0.6335,0.6344,0.6355,0.6358,0.636,0.6364,0.6391,0.6397,0.6341,0.6341,0.6341,0,0,0.5911,0.594,0.596,0.6012,0.6038,0.6072,0.6067,0.6104,0.6129,0.614,0.6186,0.6206,0.6243,0.6291,0.6313,0.6309,0.6381,0.6363,0.6365,0.6368,0.6395,0.64,0.6404,0.6343,0.6342,0.6342,0,0,0.5947,0.5972,0.6008,0.6033,0.6071,0.6089,0.6098,0.6137,0.6151,0.6197,0.6206,0.6237,0.6297,0.6323,0.6344,0.6388,0.6393,0.6398,0.6414,0.644,0.6444,0.6448,0.6464,0.647,0.6402,0.6402,0.6402,0,0.5954,0.6007,0.6026,0.6062,0.6085,0.6095,0.6132,0.6155,0.6202,0.6218,0.6212,0.6288,0.6313,0.6367,0.6378,0.6394,0.6404,0.6394,0.6442,0.6446,0.645,0.6466,0.6472,0.6403,0.6403,0.6403,0.6403,0,0.6014,0.605,0.6074,0.6119,0.6145,0.6181,0.6205,0.6229,0.6238,0.6257,0.6303,0.6334,0.6374,0.6388,0.6398,0.6443,0.6439,0.6438,0.6428,0.6456,0.6471,0.6477,0.6403,0.6403,0.6403,0.6403,0,0,0.605,0.6104,0.6113,0.6133,0.6175,0.6203,0.624,0.6279,0.6299,0.633,0.6362,0.6412,0.641,0.6434,0.6447,0.6469,0.6502,0.6465,0.6466,0.6471,0.6554,0.6555,0.6562,0.6506,0.6507,0.6508,0.6551,0,0.6091,0.6156,0.6174,0.6229,0.6262,0.6273,0.6304,0.6333,0.6352,0.6383,0.6403,0.6438,0.6434,0.6448,0.6471,0.6494,0.6519,0.6491,0.6535,0.6537,0.6526,0.657,0.6571,0.6611,0.6557,0.6558,0.6559,0,0.6148,0.618,0.6239,0.6276,0.6291,0.6319,0.6356,0.6385,0.6418,0.643,0.6456,0.6466,0.6504,0.6491,0.6544,0.6524,0.6543,0.6557,0.6559,0.6564,0.655,0.6576,0.6623,0.6629,0.6568,0.6567,0.6567,0,0.6168,0.6226,0.6269,0.6286,0.633,0.635,0.6369,0.6401,0.6424,0.6456,0.6471,0.6507,0.6527,0.6555,0.6575,0.6564,0.6626,0.6615,0.6637,0.6636,0.665,0.6649,0.6701,0.6662,0.6661,0.6661,0.6661,0,0.6212,0.6247,0.6279,0.6305,0.6345,0.6364,0.6403,0.6423,0.6451,0.6481,0.6492,0.652,0.6544,0.6575,0.6591,0.6632,0.6641,0.6652,0.6655,0.6651,0.665,0.6664,0.6662,0.6663,0.6663,0.6662,0.6662,0,0.6242,0.6264,0.6311,0.6349,0.6359,0.6387,0.642,0.6445,0.6463,0.6501,0.6511,0.654,0.6577,0.6599,0.6647,0.6657,0.6703,0.6705,0.6691,0.6693,0.6714,0.6712,0.6778,0.6787,0.6741,0.6741,0.6742,0,0.6269,0.6296,0.6337,0.6358,0.6377,0.6411,0.6434,0.6454,0.6477,0.6516,0.6537,0.6575,0.6606,0.6665,0.669,0.6726,0.673,0.675,0.6735,0.673,0.673,0.6728,0.6731,0.6753,0.6753,0.6754,0.6754,0,0.6314,0.6324,0.6356,0.6392,0.6419,0.6449,0.6478,0.6494,0.6519,0.6545,0.6583,0.6607,0.6654,0.6692,0.673,0.6749,0.6756,0.6758,0.6765,0.6761,0.6752,0.6758,0.6699,0.6757,0.6757,0.6756,0.6756,0.6756,0.6344,0.6369,0.6401,0.6437,0.6461,0.6487,0.6513,0.6535,0.6567,0.6607,0.6617,0.6656,0.6688,0.674,0.676,0.6791,0.6788,0.6798,0.6801,0.6803,0.6804,0.6747,0.6798,0.6798,0.6798,0.6798,0.6798,0,0.639,0.6411,0.6444,0.6484,0.6512,0.6515,0.6547,0.657,0.6605,0.6634,0.6664,0.6708,0.6744,0.6771,0.6808,0.6828,0.6832,0.6837,0.6836,0.684,0.6805,0.6795,0.6833,0.6833,0.6833,0.6833,0.6833,0.6833,0.6417,0.6459,0.6473,0.6526,0.6547,0.6586,0.6604,0.6629,0.6652,0.67,0.673,0.6747,0.6776,0.6815,0.6848,0.6855,0.6868,0.6873,0.688,0.6847,0.6843,0.6839,0.683,0.6875,0.6875,0.6913,0.6914,0.6914]},{"header":{"parameterUnit":"m.s-1","parameterCategory":1,"la1":30.2991,"la2":30.254,"lo1":-89.0895,"lo2":-89.0444,"dy":0.0017,"dx":0.0017,"nx":28,"ny":28,"refTime":"2024-04-19T21:00:00:Z","depth":0,"parameterNumber":3,"parameterNumberName":"V-component_of_WINDS"},"data":[0,0,0,0,0,0,0,0,0,0,0,0,0,0,0,0,0,0,0,0,0,0,0,0,0,0,0,0,0,0,0,0,0,0,0,0,0,0,0,0,0,0,0,0,0,0,0,0,0,0,0,0,0,0,0,0,0,0,1.9217,1.9217,0,1.9246,1.9246,1.9247,1.9209,1.9207,1.9206,1.9205,1.9232,1.9234,1.9236,0,0,0,0,0,0,0,0,0,0,0,0,0,1.9127,1.9129,1.9217,1.9218,1.9218,1.9246,1.9246,1.9247,1.9209,1.9207,1.9206,1.9204,1.9231,1.9234,1.9236,0,0,0,0,0,0,0,0,0,0,0,0,0,1.9162,1.9129,1.9217,1.9202,1.9201,1.9246,1.9246,1.9247,1.9209,1.9207,1.9205,1.9203,1.9231,1.9233,1.9236,1.9296,0,0,1.9246,1.9247,0,0,0,0,0,0,0,0,1.916,1.9165,1.9204,1.9204,1.9202,1.9222,1.9224,1.9263,1.921,1.9206,1.9205,1.9202,1.923,1.9233,1.9243,1.9297,1.9298,1.9246,1.9248,1.9249,1.925,0,0,0,0,0,0,0,1.9158,1.9164,1.9228,1.9205,1.9204,1.9194,1.9196,1.9232,1.9229,1.9206,1.9204,1.9208,1.9229,1.924,1.9243,1.9299,1.9246,1.9248,1.925,1.9251,1.9402,1.9405,0,0,0,0,0,0,1.9157,1.9162,1.9227,1.9229,1.9176,1.9197,1.92,1.9217,1.9229,1.9228,1.9209,1.9206,1.9236,1.924,1.9244,1.9314,1.9249,1.9252,1.9253,1.94,1.9403,1.9405,0,0,0,0,0,0,1.9155,1.9163,1.9226,1.9195,1.9202,1.9201,1.9221,1.9219,1.923,1.9231,1.923,1.9221,1.9234,1.924,1.9283,1.9314,1.9253,1.9256,1.9398,1.9401,1.9404,1.9455,0,0,0,0,0,0,1.9153,1.9163,1.9186,1.9196,1.9204,1.9266,1.9223,1.9221,1.9235,1.9231,1.9242,1.9242,1.9233,1.9279,1.9286,1.9317,1.9258,1.9395,1.9399,1.9403,1.9451,1.946,1.9467,0,0,0,0,0,1.915,1.9199,1.9188,1.9196,1.9233,1.9268,1.9273,1.9263,1.9238,1.9261,1.9262,1.9241,1.931,1.9284,1.9292,1.9324,1.9393,1.9398,1.9403,1.9447,1.9458,1.9467,0,0,0,0,0,0,1.9193,1.92,1.9188,1.9242,1.9255,1.9262,1.929,1.9275,1.9294,1.9289,1.9275,1.9278,1.9325,1.9328,1.9299,1.9382,1.9347,1.9354,1.9378,1.9388,1.9397,1.9395,1.9261,0,0,0,0,0,1.9209,1.9237,1.9242,1.9289,1.9296,1.9292,1.9307,1.9298,1.9311,1.9316,1.9319,1.9332,1.9356,1.9372,1.9395,1.9451,1.9452,1.9477,1.9485,1.9492,1.9498,1.9528,1.9539,1.9422,1.9422,1.9421,0,0,1.9242,1.9249,1.9268,1.9298,1.9307,1.9336,1.9297,1.9329,1.9351,1.932,1.9362,1.9365,1.9378,1.9428,1.945,1.9432,1.9531,1.9499,1.9504,1.9506,1.9534,1.9545,1.9555,1.9425,1.9424,1.9424,0,0,1.9317,1.9325,1.9365,1.9375,1.9389,1.9386,1.9396,1.9405,1.9407,1.9448,1.9426,1.945,1.9492,1.9502,1.9513,1.9591,1.9573,1.9598,1.9643,1.9671,1.9681,1.9689,1.9716,1.9727,1.9604,1.9604,1.9604,0,1.9356,1.9399,1.9388,1.9422,1.9435,1.941,1.945,1.9459,1.948,1.9489,1.947,1.9522,1.9529,1.958,1.9599,1.9609,1.9619,1.9597,1.968,1.9688,1.9696,1.9722,1.9732,1.9607,1.9607,1.9607,1.9606,0,1.9446,1.9477,1.9507,1.9529,1.9545,1.9582,1.9575,1.9593,1.9583,1.9581,1.9624,1.9631,1.9654,1.9665,1.9655,1.9716,1.9704,1.9683,1.9648,1.971,1.9735,1.9745,1.9612,1.9611,1.961,1.9609,0,0,1.955,1.9564,1.9575,1.9585,1.9598,1.9621,1.9656,1.9679,1.9695,1.971,1.9738,1.9774,1.9754,1.9766,1.9757,1.9782,1.9843,1.9757,1.9757,1.9773,1.991,1.9926,1.9938,1.9831,1.9833,1.9834,1.9909,0,1.9625,1.9687,1.9677,1.9737,1.9764,1.974,1.977,1.9781,1.9781,1.9803,1.9802,1.9828,1.98,1.9807,1.9831,1.9831,1.987,1.9825,1.9857,1.9858,1.9855,1.9951,1.9968,2.0039,1.9918,1.992,1.9921,0,1.9721,1.974,1.9802,1.9811,1.9822,1.985,1.987,1.9892,1.9904,1.9902,1.9915,1.99,1.9934,1.9898,1.9945,1.9914,1.9926,1.9928,1.9931,1.9934,1.9894,1.9957,2.0061,2.0071,1.9936,1.9934,1.9933,0,1.9791,1.9831,1.9874,1.9882,1.9894,1.9914,1.9919,1.9929,1.9943,1.996,1.9969,1.999,2.0001,2.0017,2.0009,1.9983,2.0057,2.002,2.0055,2.0056,2.0072,2.0072,2.018,2.008,2.008,2.0079,2.0079,0,1.9876,1.9915,1.9905,1.9932,1.9974,1.9962,2.0005,2.0007,2.0015,2.0041,2.002,2.0045,2.0031,2.0054,2.0047,2.0087,2.0092,2.0091,2.0089,2.0093,2.0093,2.0101,2.0096,2.0082,2.0082,2.0081,2.008,0,1.9961,1.9956,2.0001,2.0008,2.001,2.0042,2.0047,2.0071,2.0069,2.0101,2.0108,2.0104,2.013,2.0123,2.0151,2.0146,2.0196,2.0187,2.0192,2.019,2.0226,2.0223,2.0345,2.036,2.0249,2.025,2.0251,0,2.0016,2.0046,2.0056,2.0072,2.0079,2.0105,2.0119,2.0108,2.0124,2.0139,2.0161,2.0185,2.0204,2.0246,2.0245,2.0266,2.0258,2.0299,2.0261,2.0265,2.0259,2.0258,2.0261,2.0307,2.0308,2.0309,2.031,0,2.0114,2.011,2.0133,2.0154,2.0172,2.0188,2.0202,2.0216,2.0206,2.0224,2.0251,2.0266,2.0294,2.0318,2.0337,2.0342,2.0324,2.0322,2.0331,2.0337,2.0339,2.0338,2.0213,2.032,2.0319,2.0318,2.0317,2.0317,2.0186,2.0211,2.0222,2.0248,2.0257,2.0271,2.0294,2.0294,2.0316,2.0339,2.033,2.0361,2.037,2.0394,2.0401,2.0424,2.0408,2.0422,2.0426,2.0429,2.0434,2.0334,2.0427,2.0427,2.0427,2.0427,2.0426,0,2.0284,2.0289,2.0313,2.0333,2.0353,2.0335,2.0349,2.0367,2.0394,2.0405,2.0424,2.0454,2.0477,2.0478,2.0499,2.0517,2.051,2.0523,2.0522,2.0524,2.0447,2.0437,2.0529,2.0529,2.0529,2.0529,2.0529,2.0529,2.0337,2.0378,2.0375,2.0421,2.0426,2.0456,2.0466,2.0478,2.0486,2.0521,2.0541,2.0541,2.0547,2.0569,2.0589,2.0588,2.0597,2.0614,2.0611,2.0539,2.0529,2.0519,2.051,2.0616,2.0616,2.0686,2.0686,2.0687]}]]